When you browse on this site, cookies collect data to enhance your experience and personalize the content and advertising you see.
Visit our Privacy Policy to learn more. By continuing to use the site, you agree to this use of cookies and data.
  • En España
  • Lista de países
  • Para 7 días
  • Temperatura del agua
  • El tiempo en el mapa
  • Informadores
  • user-avatar
    Iniciar sesión

    Tiempo cada hora Shushmino

    Hoy, 17 Febrero, Lunes

    Tiempo Temperatura Precipitaciones Viento Presión Humedad
    00:00 -2°C° 0 mm 8 mps 747 mmHg 90%
    01:00 -2°C° 0 mm 8 mps 746 mmHg 89%
    02:00 -4°C° 0 mm 9 mps 746 mmHg 87%
    03:00 -4°C° 0 mm 9 mps 745 mmHg 86%
    04:00 -4°C° 0 mm 9 mps 745 mmHg 84%
    05:00 -4°C° 0 mm 9 mps 744 mmHg 83%
    06:00 -4°C° 0 mm 9 mps 744 mmHg 82%
    07:00 -4°C° 0 mm 9 mps 744 mmHg 81%
    08:00 -4°C° 0 mm 10 mps 744 mmHg 80%
    09:00 -3°C° 0 mm 10 mps 743 mmHg 80%
    10:00 -3°C° 0 mm 10 mps 743 mmHg 79%
    11:00 -3°C° 0 mm 10 mps 742 mmHg 78%
    12:00 -3°C° 0 mm 10 mps 742 mmHg 79%
    13:00 -3°C° 0 mm 10 mps 742 mmHg 80%
    14:00 -3°C° 0 mm 10 mps 742 mmHg 81%
    15:00 -3°C° 0 mm 10 mps 742 mmHg 80%
    16:00 -3°C° 0 mm 9 mps 742 mmHg 79%
    17:00 -3°C° 0 mm 9 mps 741 mmHg 78%
    18:00 -3°C° 0 mm 9 mps 742 mmHg 79%
    19:00 -1°C° 0 mm 8 mps 742 mmHg 79%
    20:00 -1°C° 0 mm 8 mps 742 mmHg 80%
    21:00 -1°C° 0 mm 8 mps 742 mmHg 82%
    22:00 -1°C° 0 mm 7 mps 742 mmHg 83%
    23:00 -1°C° 0 mm 7 mps 742 mmHg 85%

    Mañana, 18 Febrero, Martes

    Tiempo Temperatura Precipitaciones Viento Presión Humedad
    00:00 -1°C° 0.2 mm 6 mps 742 mmHg 88%
    01:00 -2°C° 0.2 mm 6 mps 742 mmHg 91%
    02:00 -2°C° 0.2 mm 6 mps 743 mmHg 94%
    03:00 -1°C° 0.5 mm 5 mps 742 mmHg 95%
    04:00 -1°C° 0.5 mm 5 mps 742 mmHg 96%
    05:00 -1°C° 0.5 mm 5 mps 741 mmHg 97%
    06:00 -1°C° 1.2 mm 5 mps 741 mmHg 98%
    07:00 -1°C° 1.2 mm 5 mps 741 mmHg 98%
    08:00 -2°C° 1.2 mm 5 mps 742 mmHg 98%
    09:00 -2°C° 0.5 mm 5 mps 741 mmHg 98%
    10:00 -2°C° 0.5 mm 5 mps 741 mmHg 98%
    11:00 -1°C° 0.5 mm 5 mps 740 mmHg 98%
    12:00 -2°C° 0.1 mm 5 mps 740 mmHg 98%
    13:00 -2°C° 0.1 mm 4 mps 740 mmHg 98%
    14:00 -2°C° 0.1 mm 4 mps 739 mmHg 98%
    15:00 -2°C° 0.2 mm 5 mps 739 mmHg 98%
    16:00 -1°C° 0.2 mm 5 mps 738 mmHg 97%
    17:00 -1°C° 0.2 mm 5 mps 738 mmHg 97%
    18:00 -1°C° 0.3 mm 5 mps 738 mmHg 97%
    19:00 -1°C° 0.3 mm 5 mps 738 mmHg 98%
    20:00 -1°C° 0.3 mm 5 mps 738 mmHg 98%
    21:00 -1°C° 0.2 mm 5 mps 738 mmHg 98%
    22:00 -1°C° 0.2 mm 4 mps 738 mmHg 98%
    23:00 -1°C° 0.2 mm 4 mps 738 mmHg 98%

    Pasado mañana, 19 Febrero, Miércoles

    Tiempo Temperatura Precipitaciones Viento Presión Humedad
    00:00 -1°C° 0 mm 4 mps 738 mmHg 97%
    01:00 -1°C° 0 mm 4 mps 738 mmHg 95%
    02:00 0°C° 0 mm 3 mps 739 mmHg 94%
    03:00 -2°C° 0 mm 4 mps 739 mmHg 94%
    04:00 -2°C° 0 mm 4 mps 739 mmHg 94%
    05:00 -2°C° 0 mm 4 mps 738 mmHg 94%
    06:00 -2°C° 0 mm 4 mps 739 mmHg 95%
    07:00 -2°C° 0 mm 4 mps 739 mmHg 95%
    08:00 -2°C° 0 mm 4 mps 740 mmHg 95%
    09:00 -2°C° 0 mm 4 mps 740 mmHg 96%
    10:00 -2°C° 0 mm 4 mps 740 mmHg 97%
    11:00 -1°C° 0 mm 4 mps 740 mmHg 98%
    12:00 -1°C° 0 mm 4 mps 740 mmHg 97%
    13:00 -1°C° 0 mm 4 mps 740 mmHg 95%
    14:00 -1°C° 0 mm 4 mps 741 mmHg 94%
    15:00 -1°C° 0 mm 4 mps 741 mmHg 92%
    16:00 0°C° 0 mm 3 mps 741 mmHg 91%
    17:00 -1°C° 0 mm 3 mps 740 mmHg 89%
    18:00 -1°C° 0 mm 3 mps 741 mmHg 89%
    19:00 -1°C° 0 mm 3 mps 741 mmHg 88%
    20:00 -1°C° 0 mm 3 mps 742 mmHg 88%
    21:00 -1°C° 0 mm 3 mps 742 mmHg 88%
    22:00 -1°C° 0 mm 3 mps 741 mmHg 87%
    23:00 -1°C° 0 mm 2 mps 741 mmHg 87%

    20 Febrero, Jueves

    Tiempo Temperatura Precipitaciones Viento Presión Humedad
    00:00 -2°C° 0 mm 2 mps 742 mmHg 87%
    01:00 -2°C° 0 mm 2 mps 742 mmHg 87%
    02:00 -2°C° 0 mm 2 mps 742 mmHg 88%
    03:00 -2°C° 0 mm 2 mps 742 mmHg 88%
    04:00 -4°C° 0 mm 3 mps 742 mmHg 88%
    05:00 -4°C° 0 mm 3 mps 742 mmHg 88%
    06:00 -4°C° 0 mm 3 mps 742 mmHg 89%
    07:00 -2°C° 0 mm 3 mps 742 mmHg 89%
    08:00 -2°C° 0 mm 3 mps 742 mmHg 90%
    09:00 -2°C° 0 mm 3 mps 742 mmHg 90%
    10:00 -1°C° 0 mm 3 mps 743 mmHg 91%
    11:00 0°C° 0 mm 3 mps 743 mmHg 92%
    12:00 0°C° 0 mm 3 mps 743 mmHg 93%
    13:00 0°C° 0 mm 3 mps 743 mmHg 94%
    14:00 0°C° 0 mm 3 mps 743 mmHg 95%
    15:00 -1°C° 0 mm 3 mps 743 mmHg 95%
    16:00 -1°C° 0 mm 3 mps 743 mmHg 95%
    17:00 -2°C° 0 mm 3 mps 743 mmHg 95%
    18:00 -2°C° 0 mm 3 mps 743 mmHg 95%
    19:00 -2°C° 0 mm 3 mps 743 mmHg 95%
    20:00 -2°C° 0 mm 3 mps 744 mmHg 94%
    21:00 -2°C° 0 mm 2 mps 744 mmHg 95%
    22:00 -2°C° 0 mm 2 mps 744 mmHg 95%
    23:00 -2°C° 0 mm 2 mps 744 mmHg 96%

    21 Febrero, Viernes

    Tiempo Temperatura Precipitaciones Viento Presión Humedad
    00:00 -2°C° 0.1 mm 2 mps 744 mmHg 97%
    01:00 -2°C° 0.1 mm 2 mps 744 mmHg 97%
    02:00 -2°C° 0.1 mm 2 mps 744 mmHg 98%
    03:00 -2°C° 0.1 mm 2 mps 744 mmHg 98%
    04:00 -2°C° 0.1 mm 2 mps 744 mmHg 98%
    05:00 0°C° 0.1 mm 1 mps 744 mmHg 98%
    06:00 0°C° 0.1 mm 1 mps 745 mmHg 98%
    07:00 0°C° 0.1 mm 1 mps 745 mmHg 98%
    08:00 0°C° 0.1 mm 1 mps 745 mmHg 98%
    15:00 +1°C° 0 mm 1 mps 745 mmHg 98%
    16:00 +1°C° 0 mm 1 mps 745 mmHg 98%
    17:00 +1°C° 0 mm 1 mps 745 mmHg 97%
    18:00 +1°C° 0 mm 1 mps 745 mmHg 97%
    19:00 0°C° 0 mm 1 mps 745 mmHg 97%
    20:00 -2°C° 0 mm 2 mps 745 mmHg 96%
    21:00 -2°C° 0 mm 2 mps 745 mmHg 97%
    22:00 -2°C° 0 mm 2 mps 745 mmHg 97%
    23:00 -2°C° 0 mm 2 mps 745 mmHg 97%

    22 Febrero, Sábado

    Tiempo Temperatura Precipitaciones Viento Presión Humedad
    00:00 -2°C° 0 mm 2 mps 745 mmHg 96%
    01:00 -2°C° 0 mm 2 mps 745 mmHg 96%
    02:00 -2°C° 0 mm 2 mps 745 mmHg 95%
    03:00 -2°C° 0 mm 3 mps 744 mmHg 95%
    04:00 -2°C° 0 mm 3 mps 744 mmHg 95%
    05:00 -2°C° 0 mm 3 mps 744 mmHg 96%
    06:00 -2°C° 0 mm 3 mps 743 mmHg 96%
    07:00 -3°C° 0 mm 4 mps 743 mmHg 95%
    08:00 -3°C° 0 mm 4 mps 743 mmHg 95%
    09:00 -3°C° 0 mm 4 mps 743 mmHg 95%
    10:00 -2°C° 0 mm 5 mps 742 mmHg 94%
    11:00 -2°C° 0 mm 5 mps 742 mmHg 93%
    12:00 -3°C° 0 mm 6 mps 742 mmHg 93%
    13:00 -3°C° 0 mm 6 mps 741 mmHg 92%
    14:00 -3°C° 0 mm 6 mps 740 mmHg 92%
    15:00 -3°C° 0.1 mm 6 mps 740 mmHg 93%
    16:00 -3°C° 0.1 mm 6 mps 739 mmHg 95%
    17:00 -3°C° 0.1 mm 6 mps 738 mmHg 97%
    18:00 -3°C° 0.1 mm 6 mps 738 mmHg 97%
    19:00 -3°C° 0.1 mm 6 mps 737 mmHg 97%
    20:00 -3°C° 0.1 mm 6 mps 737 mmHg 97%
    21:00 -3°C° 0.1 mm 6 mps 736 mmHg 94%
    22:00 -3°C° 0.1 mm 6 mps 735 mmHg 92%
    23:00 -3°C° 0.1 mm 6 mps 734 mmHg 89%
    Mostrar más